Regional Weather Roundup
Issued by NWS

Home | Current Version | Previous Version | Graphics & Text | Print | Product List | Glossary On
Versions: 1 2 3 4 5 6 7 8 9 10 11 12 13 14 15 16 17 18 19 20 21 22 23 24 25 26 27 28 29 30 31 32 33 34 35 36 37 38 39 40 41 42 43 44 45 46 47 48 49 50
000
ASUS45 KBOU 280507
RWRCO

WEATHER ROUNDUP FOR COLORADO
NATIONAL WEATHER SERVICE DENVER/BOULDER CO
1100 PM MDT WED AUG 27 2014

NOTE: "FAIR" INDICATES FEW OR NO CLOUDS BELOW 12000 FEET WITH NO
SIGNIFICANT WEATHER AND/OR OBSTRUCTIONS TO VISIBILITY.

COZ001>005-013-030-031-280600-
...NORTHWEST COLORADO...

CITY           SKY/WX    TMP DP  RH WIND       PRES   REMARKS
CRAIG          CLOUDY    54  51  90 SW7       30.29F
HAYDEN         CLOUDY    52  46  82 CALM      30.30F
MEEKER         LGT RAIN  52  50  93 S3        30.31F
MOUNT WERNER   NOT AVBL
STEAMBOAT SPGS CLOUDY    50  49  95 CALM      30.31F
WALDEN         MOCLDY    46  41  81 S5        30.34S
$$

COZ006>008-011-280600-
...WEST CENTRAL VALLEYS...

CITY           SKY/WX    TMP DP  RH WIND       PRES   REMARKS
GRAND JUNCTION CLOUDY    58  55  90 NE6       30.24F
MONTROSE       PTCLDY    54  47  77 S6        30.31S
EAGLE          CLOUDY    55  46  71 W10       30.33F
RIFLE          CLOUDY    56  51  84 E6        30.28S
DELTA          RAIN      60  53  76 CALM      30.27F
NUCLA          NOT AVBL
$$

COZ017>023-064>068-280600-
...SOUTHWEST COLORADO...

CITY           SKY/WX    TMP DP  RH WIND       PRES   REMARKS
DURANGO        PTCLDY    49  45  86 CALM      30.32F
CORTEZ         NOT AVBL
PAGOSA SPRINGS PTCLDY    48  40  73 CALM      30.38S
TELLURIDE      MOCLDY    45  43  93 SE3       30.46F
WOLF CREEK PAS MOCLDY    34  32  93 SW12      30.57S WCI  25
$$

COZ009-010-012-014-032>034-037-058>063-280600-
...CENTRAL COLORADO...

CITY           SKY/WX    TMP DP  RH WIND       PRES   REMARKS
ASPEN          LGT RAIN  50  44  80 NW5       30.36S
BUENA VISTA    PTCLDY    53  34  49 W13       30.32F
COPPER MTN     CLOUDY    41  32  70 W9G16     30.53S
BERTHOUD PASS  FOG       32  30  93 NW22G30   30.52F VSB<1/4 WCI  19
COTTONWOOD PAS PTCLDY    48  32  53 NW9       30.42S
GUNNISON       CLOUDY    48  39  71 N5        30.38F
KREMMLING      CLOUDY    54  41  62 CALM      30.33F
LEADVILLE      MOCLDY    42  35  76 VRB3      30.42F
SALIDA         PTCLDY    56  39  53 W15G25    30.37F
SUNLIGHT       LGT RAIN  41  41 100 CALM      30.49F VSB 3/4
WILKERSON PASS NOT AVBL
$$

COZ069>075-280600-
...SAN LUIS VALLEY/SANGRE DE CRISTO MOUNTAINS...

CITY           SKY/WX    TMP DP  RH WIND       PRES   REMARKS
ALAMOSA        CLEAR     49  41  74 N3        30.33F
LA VETA PASS   NOT AVBL
SAGUACHE       PTCLDY    48  41  76 N5        30.36S
$$

COZ035-036-038>040-280600-
...NORTHERN COLORADO FRONT RANGE...

CITY           SKY/WX    TMP DP  RH WIND       PRES   REMARKS
DENVER INTL AP MOCLDY    57  54  89 E9        30.16R
DMNS CITY PARK   N/A     57  53  86 S5G12     30.17R
AURORA         PTCLDY    55  52  91 S6        30.19R
FRONT RANGE AP MOCLDY    59  55  88 SE8       30.19R
ERIE MUNI ARPT PTCLDY    58  55  90 CALM      30.14R
BOULDER MUN AP PTCLDY    59  52  77 CALM      30.14S
CENTENNIAL     PTCLDY    54  49  83 S7        30.19S
BROOMFIELD     NOT AVBL
FORT COLLINS   CLOUDY    63  52  67 SE6       30.15R
LONGMONT       CLOUDY    60  57  90 E5        30.15S
$$

COZ041-046-047-076>085-087-088-280600-
...PIKES PEAK/PALMER DIVIDE AND SOUTHERN FOOTHILLS...

CITY           SKY/WX    TMP DP  RH WIND       PRES   REMARKS
COLO. SPRINGS  PTCLDY    60  50  69 N23       30.19R
A. F. ACADEMY  PTCLDY    57  47  69 N10       30.22S
ELLICOTT       PTCLDY    57  48  72 N22G30    30.17R
FALCON         PTCLDY    55  52  88 N10G16    30.24S
FORT CARSON    PTCLDY    60  50  71 N12       30.16S
LIMON          LGT RAIN  59  55  87 N23G31    30.15S
MONUMENT HILL  MOCLDY    50  46  87 CALM      30.25F
TRINIDAD       PTCLDY    63  41  44 CALM      30.14S
$$

COZ042>045-048>051-090-091-280600-
...NORTHEAST COLORADO...

CITY           SKY/WX    TMP DP  RH WIND       PRES   REMARKS
GREELEY ARPT   CLOUDY    64  48  55 S8        30.15R
AKRON          LGT RAIN  60  58  92 W8        30.15R
BURLINGTON     MOCLDY    68  64  87 SW6       30.04R
WRAY           TSTM     N/A N/A N/A NE6       30.07R
STERLING       CLOUDY    68  64  88 CALM      30.09R
HOLYOKE        LGT RAIN  63  61  94 NE18G24   30.03F
FORT MORGAN    CLOUDY    59  53  80 CALM      30.19R
$$

COZ086-089-092>099-280600-
...SOUTHEAST COLORADO...

CITY           SKY/WX    TMP DP  RH WIND       PRES   REMARKS
PUEBLO         CLEAR     69  51  52 N15       30.08R
LA JUNTA       PTCLDY    68  53  58 SW12      30.01S
LAMAR          PTCLDY    73  62  68 S20G32    29.95S
SPRINGFIELD      N/A     67  62  84 S15       30.05F
$$



USA.gov is the U.S. government's official web portal to all federal, state and local government web resources and services.